Wind_Speed
13 13 14 13 13 13 13 12 9 7 6 6 6 5 5 5 4 3 2 2 1 2 2 2 3 3 3 4 4 5 6 6 6 7 7 7 8 8 8 8 8 8 8
13 13 13 13 13 13 13 12 11 9 7 6 6 5 5 5 6 4 3 2 2 2 3 3 3 3 4 4 5 6 6 6 6 7 7 7 8 7 8 8 8 8 8
13 13 13 13 13 13 13 12 11 9 7 6 5 5 5 5 5 5 4 3 3 3 3 4 4 4 4 5 5 6 6 6 7 8 8 8 8 8 8 9 8 9 9
12 13 13 13 13 13 12 11 10 9 8 7 6 5 5 5 5 5 5 4 4 3 4 4 4 5 5 5 5 6 7 7 7 8 8 8 8 9 9 10 10 10 10
13 12 13 13 13 13 12 11 11 9 8 8 7 6 7 7 6 6 6 5 5 5 5 5 5 6 6 6 5 6 7 7 8 8 9 9 9 9 10 11 11 12 12
13 12 13 13 13 13 12 11 11 9 9 8 8 8 8 8 7 6 6 6 6 6 6 6 6 6 6 6 7 7 8 8 9 9 9 9 9 10 11 11 12 13 14
13 13 13 13 12 13 13 12 11 10 10 9 8 8 8 7 7 7 7 8 7 7 7 7 7 7 8 8 8 8 9 9 10 10 10 10 10 12 12 13 14 15 15
13 14 14 13 13 13 13 12 12 11 10 9 9 9 8 8 8 8 8 8 8 8 8 8 8 8 8 9 9 9 10 11 11 11 11 12 12 14 14 15 16 16 16
14 14 14 14 13 13 13 13 12 12 12 10 9 9 9 8 8 8 9 9 9 9 10 10 10 10 10 10 11 11 11 12 12 13 13 14 14 15 16 17 17 17 16
16 15 15 15 15 15 14 13 13 12 12 11 10 10 10 10 10 11 11 11 11 11 11 11 12 12 12 12 13 13 13 13 13 14 15 15 15 16 17 17 17 18 18
18 16 17 17 16 15 15 14 14 13 12 12 12 12 11 11 12 13 14 14 13 14 14 14 14 14 14 14 15 15 15 15 15 16 16 17 17 17 18 18 18 19 19
20 19 19 19 18 16 16 17 16 14 13 14 14 13 13 14 14 14 15 15 15 16 16 16 16 16 16 17 17 17 18 18 18 18 19 19 19 19 19 19 19 19 19
21 20 19 19 19 18 17 18 16 15 15 15 16 16 16 16 17 17 18 18 18 18 18 17 17 17 18 18 18 19 19 20 20 21 21 21 21 21 21 21 21 21 21
21 21 20 20 20 20 19 19 19 18 18 17 18 18 18 19 19 20 20 21 20 20 19 19 19 19 20 20 20 21 22 22 23 23 23 23 23 22 23 23 23 23 23
22 22 21 21 21 21 20 21 21 20 20 20 20 20 20 21 21 22 21 21 21 21 21 22 22 22 22 22 22 23 23 24 24 24 24 24 24 25 25 25 26 26 25
23 22 22 22 22 22 22 23 23 22 21 21 21 22 22 22 23 23 22 22 22 22 23 23 24 24 24 25 25 25 25 25 25 25 25 26 26 27 28 28 28 28 28
24 23 23 24 24 23 24 24 23 23 23 22 23 23 23 23 23 23 23 23 23 22 23 24 25 25 25 26 26 27 27 27 27 27 27 28 29 30 30 30 31 30 30
24 24 24 24 24 24 24 24 24 24 24 24 24 24 24 24 24 24 24 24 24 24 25 25 26 26 27 28 28 28 29 29 29 29 30 30 31 31 31 31 31 30 30
25 24 24 24 24 24 25 25 24 25 25 25 26 26 26 26 26 25 26 26 26 26 26 27 27 27 28 28 29 30 30 30 31 32 32 33 33 33 33 33 33 33 33
26 25 25 25 25 25 25 25 25 25 26 26 27 27 27 27 27 27 27 27 27 27 28 29 29 28 29 29 30 30 31 31 32 33 33 34 35 35 35 35 35 35 35
26 25 25 25 26 26 26 26 26 25 26 26 26 26 27 27 27 27 27 27 27 28 29 30 30 30 30 30 31 32 32 33 33 33 33 34 35 35 36 37 37 37 37
26 25 26 26 27 26 26 27 26 26 26 26 26 26 27 27 27 26 27 28 29 29 29 30 30 30 30 31 31 31 32 32 32 33 33 34 35 35 36 37 37 37 38
27 27 27 26 26 26 27 27 27 27 26 26 26 26 26 26 25 26 27 28 28 29 29 29 30 30 30 30 31 31 31 32 33 33 34 34 35 36 36 37 36 36 37
27 28 26 26 26 26 26 27 27 27 26 25 25 25 25 25 26 27 27 27 28 28 28 28 29 29 29 29 30 31 32 32 33 34 34 35 35 36 36 37 37 38 38
27 27 27 28 27 26 26 26 26 26 25 24 24 25 26 26 26 27 27 27 28 29 28 28 28 29 29 29 31 31 31 32 33 34 35 35 36 37 38 39 39 39 40
27 27 28 27 26 26 25 25 25 25 25 25 25 26 26 26 26 26 27 27 28 28 28 28 29 29 28 29 30 31 32 33 33 34 35 36 37 38 38 39 39 40 41
Wind_Direction
353 357 1 3 5 8 11 12 10 7 5 9 15 24 25 26 29 35 48 48 34 10 350 303 272 270 254 250 250 249 250 255 256 263 271 277 286 290 296 299 298 298 297
350 351 354 358 1 2 6 7 10 9 4 2 4 9 11 15 14 10 5 12 357 337 328 306 287 273 261 263 259 254 254 258 262 265 270 275 283 287 298 298 299 301 300
343 346 349 352 355 356 360 2 3 6 6 4 5 0 1 5 2 1 359 344 339 333 326 314 311 287 278 273 261 256 258 263 266 270 274 280 285 287 293 297 303 303 300
338 340 343 346 348 349 352 357 357 356 359 356 351 350 346 343 342 342 341 332 334 334 322 308 309 302 293 280 269 270 272 273 272 275 279 283 285 287 289 295 297 296 294
332 336 339 340 342 343 343 346 349 348 345 346 341 334 334 330 326 325 323 327 334 334 331 319 317 313 305 295 288 286 284 282 280 280 286 289 284 286 290 292 294 296 295
324 330 333 335 337 338 336 336 340 339 338 335 331 326 323 322 320 319 323 323 326 327 328 324 318 319 311 302 299 295 292 291 288 288 293 292 289 289 293 296 294 296 299
315 318 324 327 328 331 330 327 329 330 327 323 320 318 316 317 315 311 315 322 319 312 313 313 310 307 305 304 302 301 300 298 299 299 299 300 300 298 297 296 295 295 295
307 311 314 317 320 324 325 320 320 321 319 317 315 314 310 309 309 307 304 310 316 315 309 306 304 303 305 308 309 304 299 296 297 298 299 300 301 300 297 295 294 295 295
299 305 309 311 311 316 318 313 311 313 312 307 305 305 307 304 304 303 300 298 299 302 304 305 306 305 304 302 299 298 296 293 292 292 294 296 297 297 295 295 296 296 297
297 299 303 308 309 309 309 308 306 305 305 302 297 297 297 295 294 296 298 295 294 295 297 298 300 303 306 306 302 300 298 297 295 295 295 294 296 299 297 296 296 298 297
292 293 296 300 303 303 304 302 302 299 299 296 293 293 291 292 292 294 295 293 291 292 293 294 296 299 299 300 300 299 299 300 300 299 299 299 298 298 296 294 293 295 296
288 289 289 294 295 295 299 300 296 294 293 293 293 291 289 288 288 289 290 289 287 288 290 290 292 293 294 295 297 297 299 300 300 300 300 299 298 297 296 294 292 293 295
285 285 287 290 291 292 295 295 295 294 288 287 288 288 285 285 287 287 286 285 285 285 287 287 288 290 291 293 294 294 297 298 298 298 298 298 299 298 297 295 294 293 291
282 284 287 286 287 290 292 293 291 291 288 284 283 284 284 284 287 287 285 284 283 284 285 287 289 290 290 290 291 292 293 295 295 296 296 296 297 295 294 293 294 293 292
281 282 283 284 285 285 288 290 289 289 287 283 282 283 284 285 286 287 286 284 283 285 285 287 289 289 288 289 289 289 290 292 293 294 294 294 294 293 292 291 291 291 292
282 282 282 282 283 286 286 288 286 286 286 282 281 282 283 284 285 284 282 284 284 287 288 288 288 287 288 289 288 288 288 289 291 292 292 292 292 291 291 290 290 290 291
282 282 283 284 282 282 284 285 285 284 285 284 283 283 283 283 282 281 281 282 284 286 288 289 288 288 288 288 289 289 288 289 289 290 290 290 291 290 289 289 289 288 289
282 282 282 283 282 282 283 283 283 284 284 284 284 282 282 283 282 280 280 283 283 285 288 290 289 288 288 289 289 289 289 290 289 290 291 291 290 292 292 290 288 286 287
281 282 284 285 284 283 283 282 282 282 284 284 283 282 282 283 282 281 280 281 281 282 286 289 289 289 289 288 288 287 288 289 289 289 289 290 291 291 291 290 289 287 287
280 280 281 282 281 281 282 281 282 283 285 285 283 281 280 282 282 282 282 282 282 283 285 288 288 288 289 288 287 287 287 288 288 288 289 289 290 290 290 289 288 288 288
278 278 279 280 279 279 280 281 282 284 285 284 282 283 282 282 282 282 282 283 284 285 286 287 288 287 289 289 288 288 287 288 288 289 290 290 289 289 289 288 288 288 288
277 278 279 279 279 279 280 280 281 282 283 284 284 284 283 281 280 281 282 283 285 286 286 287 288 288 288 288 288 288 288 288 289 291 290 290 291 290 290 289 289 289 288
276 277 278 279 279 279 279 279 278 279 280 282 282 283 283 282 281 282 283 285 286 288 288 288 288 289 288 288 288 289 290 290 290 291 291 291 291 291 292 292 291 290 289
277 276 277 278 278 279 279 278 278 278 279 281 282 283 284 284 284 285 286 287 287 287 287 288 290 290 289 290 290 290 290 291 292 292 292 292 292 292 292 291 291 290 290
276 276 277 277 276 275 277 278 279 280 280 281 283 285 285 285 286 287 288 289 289 289 289 290 290 291 292 291 292 293 294 294 294 294 293 292 292 292 292 292 291 290 290
274 275 276 276 275 277 279 280 281 280 281 282 283 284 286 286 286 288 289 289 291 291 291 292 292 292 294 294 294 295 296 297 297 297 296 295 294 294 294 294 294 292 290
Height
5902 5901 5899 5897 5895 5894 5892 5890 5888 5887 5886 5885 5885 5884 5884 5884 5883 5883 5883 5883 5884 5884 5884 5885 5886 5886 5886 5887 5888 5889 5890 5890 5891 5892 5892 5892 5892 5892 5892 5892 5892 5892 5892
5903 5901 5900 5898 5896 5894 5893 5891 5889 5887 5886 5886 5886 5885 5885 5885 5884 5884 5884 5884 5884 5885 5885 5885 5885 5886 5886 5887 5887 5888 5889 5889 5890 5890 5891 5891 5892 5891 5891 5890 5890 5890 5890
5903 5901 5900 5898 5896 5895 5893 5892 5890 5888 5887 5887 5886 5886 5886 5886 5885 5885 5885 5885 5885 5885 5885 5885 5886 5886 5886 5886 5887 5887 5888 5888 5888 5889 5890 5890 5890 5890 5890 5889 5888 5888 5888
5903 5901 5900 5898 5897 5895 5893 5892 5890 5889 5888 5887 5887 5887 5887 5887 5886 5886 5886 5885 5885 5885 5885 5885 5885 5885 5885 5886 5886 5886 5887 5887 5887 5887 5887 5888 5888 5888 5888 5888 5887 5886 5886
5902 5901 5900 5898 5897 5895 5894 5892 5891 5889 5888 5888 5887 5887 5887 5887 5887 5886 5886 5886 5886 5886 5886 5885 5885 5885 5885 5885 5885 5886 5886 5886 5886 5886 5886 5886 5886 5886 5886 5886 5885 5884 5883
5902 5900 5899 5898 5896 5895 5893 5892 5891 5889 5888 5888 5887 5887 5887 5886 5886 5886 5886 5885 5885 5885 5885 5885 5885 5885 5884 5885 5885 5885 5885 5885 5884 5884 5884 5883 5883 5883 5883 5883 5882 5882 5881
5900 5899 5898 5897 5895 5894 5892 5891 5890 5889 5888 5887 5887 5886 5886 5886 5885 5885 5885 5885 5885 5885 5885 5885 5884 5884 5884 5884 5883 5883 5883 5883 5883 5882 5881 5881 5880 5880 5880 5879 5879 5878 5877
5899 5898 5897 5895 5894 5892 5891 5889 5888 5888 5887 5886 5886 5885 5885 5885 5884 5884 5884 5884 5884 5884 5884 5884 5883 5883 5882 5882 5882 5881 5881 5881 5881 5880 5879 5879 5878 5877 5876 5876 5875 5874 5873
5896 5896 5894 5893 5891 5890 5889 5888 5887 5886 5885 5884 5884 5884 5884 5883 5883 5883 5883 5883 5883 5882 5882 5882 5882 5881 5881 5880 5880 5879 5879 5878 5878 5877 5877 5876 5875 5874 5873 5872 5871 5870 5869
5892 5892 5891 5890 5889 5888 5886 5885 5884 5884 5883 5882 5882 5882 5882 5882 5882 5881 5882 5881 5881 5880 5880 5880 5879 5879 5878 5878 5877 5877 5876 5875 5874 5874 5873 5872 5871 5870 5869 5868 5867 5866 5865
5890 5889 5888 5887 5886 5885 5883 5882 5881 5881 5880 5880 5880 5880 5880 5879 5879 5879 5879 5879 5878 5878 5878 5877 5877 5876 5876 5875 5874 5873 5873 5872 5871 5870 5869 5868 5867 5866 5865 5864 5862 5861 5860
5887 5885 5884 5883 5882 5881 5880 5879 5878 5877 5877 5877 5877 5877 5877 5877 5877 5876 5876 5875 5875 5875 5874 5874 5873 5873 5872 5872 5871 5870 5869 5868 5867 5866 5865 5864 5863 5862 5860 5859 5858 5856 5855
5882 5881 5880 5879 5878 5877 5876 5876 5874 5874 5874 5874 5874 5874 5873 5873 5873 5873 5872 5872 5871 5870 5870 5870 5869 5869 5868 5867 5867 5866 5865 5864 5863 5861 5860 5859 5858 5856 5855 5854 5853 5851 5850
5878 5878 5877 5876 5875 5874 5873 5872 5871 5871 5870 5870 5870 5870 5870 5869 5869 5868 5867 5867 5866 5866 5866 5865 5864 5864 5863 5862 5862 5861 5860 5859 5857 5856 5855 5853 5852 5851 5849 5848 5847 5846 5844
5873 5873 5873 5871 5870 5870 5869 5868 5867 5867 5866 5865 5865 5865 5865 5864 5863 5863 5862 5862 5861 5861 5860 5860 5859 5859 5858 5857 5856 5855 5854 5853 5852 5850 5849 5848 5846 5845 5843 5842 5841 5840 5838
5868 5868 5867 5866 5866 5865 5864 5863 5862 5862 5861 5860 5860 5860 5860 5859 5858 5857 5857 5856 5856 5855 5854 5854 5853 5852 5851 5851 5849 5849 5848 5847 5845 5844 5843 5842 5840 5839 5837 5835 5834 5833 5832
5863 5862 5862 5861 5861 5859 5858 5858 5857 5856 5855 5855 5854 5854 5854 5853 5852 5851 5850 5850 5850 5849 5848 5848 5847 5846 5844 5843 5842 5841 5840 5839 5838 5837 5835 5834 5833 5831 5830 5828 5827 5825 5824
5857 5857 5856 5855 5855 5854 5853 5853 5852 5851 5850 5849 5849 5848 5848 5847 5846 5845 5845 5844 5843 5842 5841 5840 5839 5838 5837 5836 5835 5834 5833 5831 5830 5829 5827 5826 5824 5823 5821 5820 5818 5817 5816
5851 5850 5850 5849 5848 5848 5847 5847 5846 5845 5844 5843 5843 5842 5841 5840 5839 5838 5838 5837 5836 5835 5834 5833 5831 5830 5828 5827 5826 5825 5824 5823 5822 5821 5819 5817 5815 5814 5812 5811 5810 5808 5807
5844 5844 5844 5843 5842 5842 5841 5840 5840 5839 5838 5837 5836 5835 5834 5833 5833 5831 5831 5830 5829 5828 5827 5826 5824 5822 5820 5819 5817 5816 5815 5814 5813 5812 5810 5808 5807 5805 5803 5801 5800 5798 5797
5838 5837 5837 5837 5836 5835 5834 5834 5833 5832 5831 5829 5829 5827 5826 5826 5825 5824 5823 5822 5821 5820 5819 5817 5816 5814 5812 5810 5809 5808 5806 5805 5804 5802 5801 5799 5797 5795 5793 5791 5790 5788 5786
5831 5831 5831 5830 5829 5828 5827 5827 5826 5824 5823 5822 5821 5820 5819 5818 5817 5817 5816 5814 5813 5812 5810 5809 5807 5806 5804 5802 5800 5799 5797 5795 5794 5793 5791 5789 5787 5785 5783 5781 5779 5777 5775
5824 5824 5823 5823 5822 5821 5820 5819 5818 5817 5816 5815 5814 5812 5811 5810 5809 5809 5808 5806 5805 5803 5802 5800 5799 5797 5795 5793 5791 5790 5788 5786 5785 5783 5781 5778 5776 5774 5772 5769 5768 5766 5764
5817 5815 5814 5815 5815 5814 5813 5812 5810 5810 5809 5808 5807 5805 5804 5803 5802 5801 5799 5798 5796 5795 5793 5792 5790 5788 5787 5785 5783 5781 5779 5777 5775 5773 5771 5768 5766 5764 5761 5759 5757 5754 5752
5810 5808 5808 5808 5808 5807 5805 5804 5803 5802 5801 5800 5799 5798 5797 5795 5794 5792 5791 5790 5788 5787 5785 5784 5782 5780 5778 5776 5774 5772 5770 5768 5765 5763 5761 5758 5756 5753 5750 5748 5745 5742 5740
5802 5802 5801 5801 5800 5799 5797 5796 5795 5794 5793 5793 5792 5791 5789 5788 5786 5785 5784 5782 5781 5779 5777 5775 5774 5772 5770 5768 5766 5763 5761 5758 5756 5753 5750 5747 5745 5742 5739 5736 5733 5730 5728